Portland, ME

9:00 PM EDT on April 30, 2017 (GMT -0400)
Portland International

Weather History for KPWM - June, 2013

Change the Weather History Date:

Tuesday, June 11, 2013

  Actual Average Record
Temperature  
Mean Temperature 56 °F 62 °F  
Max Temperature 58 °F 72 °F 93 °F (1984)
Min Temperature 54 °F 52 °F 39 °F (1980)
Degree Days  
Heating Degree Days 9 4  
Month to date heating degree days 45 60  
Since 1 June heating degree days 45 60  
Since 1 July heating degree days 6537 7061  
Cooling Degree Days 0 1  
Month to date cooling degree days 22 11  
Year to date cooling degree days 37 18  
Since 1 June cooling degree days 22 11  
Growing Degree Days 6 (Base 50)    
Moisture  
Dew Point 53 °F    
Average Humidity 93    
Maximum Humidity 100    
Minimum Humidity 86    
Precipitation  
Precipitation 0.99 in 0.14 in 1.45 in (1917)
Month to date precipitation 3.48 1.53  
Year to date precipitation 19.28 20.73  
Snow  
Snow 0.00 in 0.00 in 0.00 in (2002)
Month to date snowfall 0.0 0.0  
Since 1 June snowfall 0.0 0.0  
Since 1 July snowfall 98.0 61.9  
Snow Depth 0.00 in    
Sea Level Pressure  
Sea Level Pressure 29.78 in    
Wind  
Wind Speed 10 mph (ENE)    
Max Wind Speed 25 mph    
Max Gust Speed 33 mph    
Visibility 6 miles    
Events Rain    
T = Trace of Precipitation, MM = Missing Value Source: NWS Daily Summary

Daily Weather History Graph

Daily Weather History Graph

Search for Another Location

Airport or City:

Trip Planner

Search our weather history database for the weather conditions in past years. The results will help you decide how hot, cold, wet, or windy it might be!

Date:

Astronomy

Jun. 11, 2013 Rise Set
Actual Time 4:59 AM EDT 8:22 PM EDT
Civil Twilight 4:23 AM EDT 8:58 PM EDT
Nautical Twilight 3:36 AM EDT 9:45 PM EDT
Astronomical Twilight 2:38 AM EDT 10:44 PM EDT
Moon 7:43 AM EDT (6/11) 10:19 PM EDT (6/11)
Length of Visible Light 16h 35m
Length of Day
15h 23m
Waxing Crescent, 8% of the Moon is Illuminated
Jun 11
Waxing Crescent
Jun 16
First Quarter
Jun 23
Full
Jun 30
Last Quarter
Jul 8
New

Hourly Weather History & Observations

Time (EDT) Temp. Dew Point Humidity Pressure Visibility Wind Dir Wind Speed Gust Speed Precip Events Conditions
12:32 AM 57.0 °F 55.9 °F 96% 30.05 in 7.0 mi South 3.5 mph - 0.03 in Rain Light Rain
12:51 AM 57.0 °F 55.9 °F 96% 30.05 in 6.0 mi Calm Calm - 0.04 in Rain Light Rain
1:03 AM 57.0 °F 55.0 °F 93% 30.05 in 5.0 mi South 4.6 mph - 0.02 in Rain Light Rain
1:14 AM 57.0 °F 55.0 °F 93% 30.04 in 5.0 mi SSE 4.6 mph - 0.04 in Rain Rain
1:51 AM 55.9 °F 55.0 °F 97% 30.03 in 7.0 mi ESE 6.9 mph - 0.10 in Rain Light Rain
2:09 AM 55.9 °F 54.0 °F 93% 30.02 in 10.0 mi South 4.6 mph - 0.00 in Rain Light Rain
2:31 AM 55.0 °F 53.1 °F 93% 30.01 in 10.0 mi SSE 4.6 mph - 0.00 in   Overcast
2:51 AM 55.0 °F 53.1 °F 93% 30.00 in 9.0 mi SE 3.5 mph - 0.00 in   Overcast
3:01 AM 55.0 °F 53.1 °F 93% 30.00 in 8.0 mi East 3.5 mph - 0.00 in Rain Light Rain
3:09 AM 55.0 °F 53.1 °F 93% 30.00 in 6.0 mi ESE 3.5 mph - 0.01 in Rain Light Rain
3:51 AM 55.0 °F 54.0 °F 96% 29.97 in 9.0 mi SE 6.9 mph - 0.01 in   Overcast
4:51 AM 54.0 °F 53.1 °F 97% 29.95 in 4.0 mi ESE 9.2 mph - 0.07 in Rain Rain
5:38 AM 54.0 °F 53.1 °F 97% 29.93 in 3.0 mi ENE 9.2 mph - 0.10 in Rain Light Rain
5:51 AM 54.0 °F 53.1 °F 97% 29.93 in 3.0 mi East 9.2 mph - 0.10 in Rain Light Rain
5:59 AM 54.0 °F 53.1 °F 97% 29.92 in 1.5 mi East 11.5 mph - 0.01 in Rain Light Rain
6:51 AM 54.0 °F 53.1 °F 97% 29.91 in 1.5 mi East 12.7 mph - 0.22 in Rain Rain
7:51 AM 54.0 °F 53.1 °F 97% 29.88 in 1.5 mi East 15.0 mph - 0.10 in Rain Light Rain
8:51 AM 54.0 °F 53.1 °F 97% 29.85 in 1.2 mi East 10.4 mph 19.6 mph 0.08 in Rain Light Rain
9:07 AM 54.0 °F 53.1 °F 97% 29.84 in 1.2 mi ENE 12.7 mph - 0.02 in Rain Light Rain
9:51 AM 54.0 °F 53.1 °F 97% 29.81 in 2.0 mi ENE 15.0 mph - 0.06 in Rain Light Rain
10:51 AM 55.0 °F 53.1 °F 93% 29.78 in 1.8 mi ENE 15.0 mph 24.2 mph 0.04 in Rain Light Rain
11:51 AM 55.0 °F 53.1 °F 93% 29.74 in 2.0 mi ENE 19.6 mph 28.8 mph 0.05 in Rain Light Rain
12:51 PM 55.0 °F 53.1 °F 93% 29.71 in 2.0 mi ENE 15.0 mph 26.5 mph 0.02 in Rain Light Rain
1:51 PM 55.0 °F 53.1 °F 93% 29.71 in 1.5 mi NE 17.3 mph 24.2 mph 0.01 in Rain Light Rain
2:51 PM 55.0 °F 53.1 °F 93% 29.69 in 1.5 mi NE 12.7 mph - 0.01 in Rain Light Rain
3:51 PM 55.0 °F 54.0 °F 96% 29.67 in 3.0 mi NE 10.4 mph - 0.00 in   Overcast
4:51 PM 57.0 °F 54.0 °F 89% 29.64 in 9.0 mi NE 9.2 mph - N/A   Overcast
5:09 PM 55.9 °F 54.0 °F 93% 29.64 in 2.5 mi NE 6.9 mph - N/A   Overcast
5:51 PM 57.0 °F 54.0 °F 89% 29.63 in 2.5 mi NE 6.9 mph - N/A   Overcast
5:52 PM 57.0 °F 54.0 °F 89% 29.62 in 9.0 mi NNE 9.2 mph - N/A   Overcast
6:03 PM 57.0 °F 53.1 °F 87% 29.62 in 10.0 mi North 8.1 mph - N/A   Overcast
6:51 PM 55.9 °F 53.1 °F 90% 29.62 in 10.0 mi North 8.1 mph - N/A   Overcast
7:42 PM 55.9 °F 53.1 °F 90% 29.61 in 10.0 mi NNE 5.8 mph - N/A   Overcast
7:51 PM 55.9 °F 53.1 °F 90% 29.61 in 10.0 mi North 5.8 mph - N/A   Overcast
8:00 PM 55.9 °F 53.1 °F 90% 29.60 in 10.0 mi North 8.1 mph - N/A   Overcast
8:07 PM 55.0 °F 53.1 °F 93% 29.60 in 10.0 mi North 8.1 mph - 0.00 in Rain Light Rain
8:38 PM 55.0 °F 53.1 °F 93% 29.59 in 10.0 mi NNE 6.9 mph - 0.02 in Rain Light Rain
8:51 PM 55.0 °F 53.1 °F 93% 29.58 in 10.0 mi NNE 5.8 mph - 0.02 in Rain Light Rain
9:14 PM 55.0 °F 53.1 °F 93% 29.58 in 8.0 mi North 6.9 mph - 0.02 in Rain Light Rain
9:51 PM 54.0 °F 53.1 °F 97% 29.59 in 8.0 mi WNW 3.5 mph - 0.05 in Rain Light Rain
10:17 PM 55.0 °F 53.1 °F 93% 29.59 in 10.0 mi NW 5.8 mph - 0.01 in Rain Light Rain
10:34 PM 55.0 °F 53.1 °F 93% 29.58 in 10.0 mi WNW 4.6 mph - 0.02 in Rain Light Rain
10:51 PM 55.0 °F 53.1 °F 93% 29.58 in 10.0 mi NW 5.8 mph - 0.02 in Rain Light Rain
11:51 PM 55.0 °F 53.1 °F 93% 29.57 in 8.0 mi NNW 6.9 mph - 0.03 in Rain Light Rain